Wind_Speed
33 33 32 32 32 32 31 30 30 29 29 29 28 28 27 26 26 25 24 23 22 21 21 21 21 21 20 20 19 18 18 17 17 17 17 17 17 16 16 15 15 14 14 14 14 15 15 16 17 19 20 21 22 23 24 25 26 27 28 28 29 29 29 30 30 31 32 33 33 34 35 36 36 37 37 37 38 38 38 39 39 39 39 39 39 39
31 31 31 30 30 30 29 28 28 27 26 26 26 26 26 25 24 23 22 21 20 20 19 19 19 19 19 18 18 17 17 17 16 16 16 16 16 16 16 16 15 15 15 15 15 16 17 18 19 20 22 23 24 25 26 27 27 28 29 29 30 30 30 31 32 32 33 34 35 35 36 36 37 37 37 37 38 38 38 39 39 39 40 40 40 40
29 28 28 27 27 27 26 25 25 24 24 24 24 23 23 21 21 20 19 19 18 18 18 18 18 18 18 18 18 17 17 17 16 16 16 16 15 15 15 15 15 15 15 16 16 17 18 19 20 22 23 24 25 26 27 28 29 29 30 30 31 31 32 32 33 34 35 35 36 36 37 37 37 37 37 37 38 38 39 39 39 40 40 40 41 41
25 25 25 24 24 24 23 23 22 21 21 21 21 20 19 18 18 17 17 16 16 16 17 17 17 18 18 18 18 18 18 17 17 17 16 16 16 16 16 16 16 16 16 16 17 18 19 20 21 23 24 25 26 27 28 29 30 30 31 31 32 32 33 33 34 35 35 36 36 37 37 37 37 37 37 38 38 39 39 40 40 41 41 42 42 42
23 22 22 22 22 22 21 21 20 19 19 19 18 18 17 16 16 15 15 15 15 15 16 16 17 18 18 18 18 18 18 18 18 18 18 18 18 18 17 17 17 17 18 18 19 19 20 21 23 24 25 26 27 28 29 30 30 31 31 32 32 33 33 34 35 35 36 36 36 37 37 37 37 38 38 39 39 40 40 41 41 42 42 42 42 43
21 20 20 20 20 20 20 20 19 19 19 18 18 17 17 16 16 15 15 15 15 15 16 16 17 17 18 18 19 19 19 20 20 20 20 20 20 20 20 20 20 19 20 20 20 21 22 23 24 25 26 27 28 29 30 31 31 32 32 32 33 33 34 34 35 35 36 36 37 37 37 38 38 39 39 40 40 41 41 41 42 42 42 41 41 41
21 20 20 20 20 20 20 20 20 20 20 19 19 19 18 18 17 17 16 16 16 16 16 17 17 17 18 18 19 20 20 21 21 22 22 22 22 22 22 22 22 22 22 22 22 23 24 25 26 27 28 29 29 30 31 31 32 32 33 33 33 34 35 35 36 36 37 37 37 38 38 39 39 40 40 40 41 41 40 40 40 39 39 38 37 37
21 21 21 21 21 21 21 21 21 21 21 21 21 20 20 20 19 19 19 18 18 18 18 18 18 19 19 19 20 20 21 22 22 22 23 23 23 23 23 23 23 24 24 24 24 25 26 27 28 28 29 30 30 31 32 32 32 33 33 34 34 35 36 36 37 37 38 38 38 39 39 40 40 40 40 40 39 39 38 37 36 35 34 33 32 31
23 22 22 22 21 21 21 21 22 22 22 22 22 22 21 21 21 21 20 20 20 20 20 20 20 21 21 21 21 22 22 23 23 23 24 24 24 24 25 25 25 25 26 26 26 27 28 28 29 30 30 31 31 32 33 33 33 34 35 35 36 36 37 37 38 38 39 39 39 39 39 39 39 38 38 37 36 35 33 32 31 30 29 28 27 26
23 23 23 22 22 22 22 22 21 21 22 22 22 22 22 22 22 22 22 22 22 22 22 22 23 23 23 23 24 24 24 25 25 25 25 25 26 26 26 26 27 27 27 28 28 29 29 30 31 31 32 32 33 33 34 34 35 36 36 37 37 38 38 38 38 38 39 39 38 38 38 37 36 35 34 33 31 30 29 27 26 25 24 23 23 22
23 23 23 23 23 22 22 22 22 22 22 22 23 23 23 23 24 24 25 25 24 24 24 24 25 25 25 25 26 26 26 26 27 27 27 27 27 28 28 28 29 29 29 30 30 31 31 32 32 33 33 34 34 35 35 36 36 37 37 38 38 38 38 38 38 37 37 37 36 35 34 33 32 31 29 28 27 25 24 23 22 22 21 21 21 20
23 23 23 23 24 24 24 24 23 23 23 23 23 24 24 24 24 25 25 26 26 26 26 26 26 26 27 27 27 27 27 27 28 28 28 28 28 29 29 30 30 30 31 31 31 32 32 33 33 34 34 34 35 35 36 36 37 37 37 37 37 37 36 36 35 35 34 33 32 31 30 29 27 26 25 24 23 22 22 21 20 20 20 20 20 20
23 23 23 23 24 24 24 24 24 24 24 24 24 24 24 24 23 24 25 25 26 26 26 27 27 27 27 27 27 27 27 27 28 28 28 29 29 29 30 30 30 31 31 31 32 32 32 32 33 33 33 34 34 35 35 36 36 36 36 36 35 35 34 33 32 31 30 29 28 27 26 25 24 23 22 21 21 20 20 20 20 19 19 20 20 20
22 23 23 23 24 24 24 24 24 24 24 24 24 24 24 24 23 23 24 24 25 25 25 26 26 26 26 26 26 26 27 27 27 27 28 28 29 29 29 30 30 30 31 31 31 31 31 31 31 32 32 33 33 34 35 35 35 35 34 33 33 32 31 30 29 28 27 26 25 23 23 22 21 21 20 20 20 20 19 19 19 19 19 20 20 20
22 22 23 23 23 23 23 23 24 24 24 24 23 24 24 24 23 23 23 24 24 23 24 24 25 25 25 26 26 26 26 26 26 27 27 28 28 29 29 29 29 30 30 30 31 30 30 30 30 31 31 32 33 33 33 33 33 32 32 31 29 28 27 26 25 24 24 23 22 21 21 20 20 20 19 19 19 19 19 20 20 20 20 20 20 20
22 22 22 22 23 23 23 23 23 23 23 23 23 23 23 23 23 23 23 23 23 23 23 23 24 24 25 25 25 25 25 25 25 25 26 27 27 28 28 29 29 29 29 30 30 30 29 29 30 30 30 31 31 32 32 32 31 30 29 28 26 25 24 24 23 22 21 21 20 20 19 19 19 19 19 19 20 20 20 20 20 20 20 20 20 21
21 22 22 22 22 22 22 22 22 22 22 22 23 23 23 23 23 23 23 23 23 23 23 23 23 24 25 25 26 25 25 25 24 24 25 25 26 27 28 28 28 28 28 29 29 29 29 28 29 29 29 30 30 30 30 30 29 27 26 25 24 23 22 21 21 20 20 20 19 19 19 19 19 19 20 20 20 20 20 20 20 21 21 21 21 21
21 21 21 21 21 22 22 22 22 22 22 22 22 22 23 23 23 23 23 23 23 23 23 23 23 23 24 25 25 26 26 25 25 24 24 24 25 26 27 28 28 28 28 28 28 28 28 28 28 28 28 28 29 28 28 27 26 25 23 22 21 21 20 20 20 19 19 19 19 19 19 19 20 20 20 20 21 21 21 21 21 21 21 21 21 21
21 22 22 21 21 21 22 22 22 22 22 22 22 22 22 23 23 23 23 23 23 23 23 23 24 24 24 24 25 26 26 26 26 25 24 24 25 26 28 29 29 28 28 28 28 28 28 27 27 27 27 27 27 27 26 25 23 22 21 20 20 19 19 19 19 19 19 19 19 19 19 20 20 20 21 21 21 21 21 21 21 21 21 21 21 21
22 22 22 22 22 22 22 22 22 22 22 23 23 23 23 23 23 23 23 23 23 24 24 24 25 25 25 25 26 27 28 28 27 26 25 24 25 27 29 30 29 29 29 29 29 28 27 27 27 27 26 26 25 25 24 22 21 20 19 19 19 19 19 19 19 19 19 19 19 20 20 20 21 21 21 21 22 22 22 21 21 21 21 21 20 20
22 23 23 23 23 23 23 23 23 23 23 24 24 24 24 24 24 24 24 24 24 25 25 25 26 26 26 27 27 28 29 29 28 27 26 25 26 28 30 30 30 29 29 29 29 28 27 27 26 26 26 25 24 23 22 21 20 19 19 19 19 19 19 19 19 19 20 20 20 20 21 21 21 22 22 22 22 22 22 21 21 21 20 20 20 19
23 23 23 24 24 23 23 23 24 24 24 24 24 24 24 24 24 24 25 25 25 26 26 26 26 27 28 28 29 30 31 30 29 28 27 26 26 28 30 31 30 29 29 29 29 28 27 26 26 25 25 23 22 21 20 19 19 18 18 19 19 19 19 20 20 20 20 21 21 21 21 22 22 22 22 22 22 22 21 21 20 20 20 19 19 19
23 23 23 24 24 24 24 24 24 24 25 25 24 24 25 25 24 25 25 25 26 26 26 27 27 28 29 29 30 31 32 32 31 30 29 27 27 28 30 31 30 29 29 29 28 27 26 25 25 24 23 22 21 20 19 19 18 18 19 19 19 20 20 20 21 21 21 21 21 22 22 22 22 22 22 22 21 21 21 20 20 20 19 19 19 19
23 23 24 24 24 24 24 24 24 24 25 25 25 25 25 25 25 26 26 26 27 27 27 28 28 29 29 30 31 32 33 33 33 32 30 28 28 28 30 30 29 29 28 28 27 26 25 25 24 24 22 21 19 19 18 18 19 19 19 20 20 21 21 21 22 22 22 22 22 22 22 22 22 22 22 21 21 21 20 20 20 19 19 19 19 19
23 23 23 24 24 24 24 24 25 25 25 25 25 25 26 26 26 27 27 28 28 28 28 28 28 28 29 30 31 32 33 34 34 33 31 29 28 28 29 30 29 28 27 27 27 26 24 24 23 22 21 19 19 18 18 19 19 20 20 21 21 21 22 22 22 22 22 22 22 22 22 22 22 21 21 21 21 20 20 20 20 20 20 19 19 19
23 23 24 24 24 24 25 25 25 25 26 26 26 26 26 26 26 27 27 28 28 28 28 28 28 29 30 30 31 31 33 34 34 33 31 29 28 28 29 29 28 27 26 26 25 24 23 23 22 22 20 19 18 18 19 19 20 21 21 22 22 22 23 23 23 23 23 23 22 22 22 22 21 21 21 21 21 20 20 20 20 20 20 20 20 20
23 23 24 24 24 25 25 25 26 26 26 27 27 27 26 26 26 27 27 28 28 29 29 28 29 29 30 30 30 31 32 33 34 33 32 29 28 27 28 28 27 26 25 24 24 23 22 22 22 21 20 19 19 19 19 20 21 21 22 22 23 23 23 23 23 23 23 23 22 22 22 22 21 21 21 21 21 21 21 21 21 21 21 21 21 20
23 23 24 24 24 25 25 26 26 27 27 27 28 28 28 27 27 27 27 28 29 29 29 29 29 29 29 29 30 31 32 33 33 33 32 30 28 26 26 26 26 25 24 23 23 22 22 21 21 21 20 19 19 20 20 21 21 22 22 23 23 23 23 23 23 23 23 23 23 22 22 22 22 21 21 21 21 21 21 22 22 22 22 22 22 21
24 24 24 24 25 25 25 26 26 27 27 28 28 29 29 29 28 28 28 29 29 29 29 30 30 30 30 29 30 30 32 33 33 33 32 29 27 26 26 25 24 23 22 22 21 21 21 21 21 20 20 20 20 21 21 21 22 22 23 23 23 23 23 23 23 23 23 23 23 23 23 22 22 22 22 22 22 22 23 23 23 23 23 23 23 23
24 24 25 25 25 25 25 26 26 27 27 28 28 29 29 29 29 29 29 30 30 30 30 30 30 30 30 29 29 30 31 32 33 33 31 29 27 26 25 24 23 23 22 21 20 20 21 21 21 21 21 21 21 21 22 22 23 23 23 23 23 23 23 23 23 23 23 23 23 23 23 23 23 23 23 23 23 24 24 25 25 25 25 25 25 24
25 25 25 25 25 25 26 26 26 27 27 28 28 29 29 29 30 30 30 30 30 30 30 30 30 30 30 29 28 28 30 31 33 32 31 28 27 26 25 23 23 22 22 21 19 19 20 21 21 22 21 21 22 22 23 23 23 23 23 23 23 24 24 24 24 24 24 24 24 24 24 24 24 24 24 25 25 26 26 26 27 27 27 27 27 27
25 25 25 25 26 26 26 26 27 27 27 28 28 29 29 29 30 30 30 30 30 30 30 30 30 30 30 29 28 28 29 30 31 31 30 28 26 25 24 23 22 22 22 21 20 19 19 20 21 22 22 22 22 23 23 23 24 24 24 23 24 24 24 24 24 24 24 24 24 24 24 25 25 25 26 26 27 27 28 29 29 29 30 30 29 29
26 26 26 26 26 27 27 27 27 27 28 28 28 29 29 29 30 30 30 30 30 30 30 30 30 30 29 29 28 28 29 29 30 30 29 27 26 25 24 23 22 22 21 21 20 20 19 19 20 21 22 23 23 23 24 24 24 24 24 24 24 24 24 24 24 24 24 24 25 25 26 26 27 27 28 28 29 29 30 30 31 31 32 32 31 31
26 27 27 27 27 27 27 28 28 28 28 28 28 29 29 29 30 30 30 30 30 30 30 30 29 29 28 28 28 28 28 29 30 29 28 27 25 24 24 23 22 22 22 21 21 20 20 19 20 20 21 22 23 23 24 24 24 24 24 24 24 24 24 25 25 25 25 25 26 26 27 28 28 29 29 30 31 31 32 32 32 33 33 33 33 33
27 27 27 27 28 28 28 28 28 28 28 28 28 29 29 29 29 30 30 30 30 30 30 29 29 28 28 27 27 27 27 28 29 29 28 27 25 24 24 23 23 23 22 22 21 21 21 20 20 20 20 21 22 23 24 24 25 25 24 24 24 25 25 25 25 26 26 26 27 28 28 29 30 31 31 32 32 33 33 33 34 34 34 34 34 34
27 28 28 28 28 28 28 28 28 28 28 28 29 29 29 29 29 29 29 29 29 29 29 29 29 28 28 27 26 26 26 27 28 28 27 26 25 24 23 23 23 23 23 23 22 22 22 21 21 21 21 21 21 21 22 24 24 25 25 25 25 25 25 26 26 27 27 28 28 29 30 31 32 32 33 33 34 34 34 34 35 35 35 35 35 34
27 27 28 28 28 28 28 28 28 28 28 28 29 29 29 29 29 29 29 29 29 29 29 28 28 28 28 27 26 26 26 26 26 27 27 26 25 25 24 23 23 23 23 23 23 23 22 22 22 21 21 21 21 21 21 23 24 24 25 25 25 26 26 27 27 28 28 29 30 30 31 32 33 34 34 34 35 35 35 35 35 35 35 35 35 35
27 27 28 28 28 28 28 28 28 28 28 28 28 29 29 29 29 29 29 29 29 28 28 28 28 28 27 27 27 26 26 26 26 26 26 26 25 25 24 24 23 24 24 24 24 23 23 23 22 22 21 21 21 21 21 22 23 24 25 25 25 26 26 27 28 28 29 30 31 32 32 33 34 34 35 35 35 35 35 35 35 35 35 36 36 36
27 27 28 28 28 28 28 28 28 28 28 28 28 28 29 29 29 29 28 28 28 28 28 28 27 27 27 27 27 26 26 26 25 25 25 25 25 25 24 24 24 24 24 24 24 24 23 23 23 22 22 22 21 21 22 22 23 24 24 25 25 26 26 27 28 29 30 31 31 32 33 33 34 34 34 34 34 34 34 35 35 35 36 36 36 36
27 27 27 27 28 28 27 27 28 28 28 28 28 28 28 28 28 28 28 28 28 28 28 28 27 27 27 27 27 27 26 26 26 25 25 25 25 25 24 24 24 24 24 24 24 24 24 23 23 23 22 22 22 22 22 22 23 24 24 24 25 26 27 27 28 29 30 31 32 32 33 33 33 34 34 34 34 34 34 34 35 35 35 36 36 35
27 27 27 28 28 28 28 28 28 28 28 28 28 28 28 28 28 28 28 29 29 28 28 28 27 27 27 27 27 27 27 27 26 26 25 25 25 25 24 24 24 24 24 24 24 24 24 24 24 23 23 23 23 22 22 22 23 24 24 25 25 26 26 27 28 29 30 31 31 32 32 33 33 33 33 33 33 33 34 34 34 35 35 35 35 35
27 27 27 27 28 28 28 28 28 28 28 28 28 28 28 28 28 28 28 28 28 28 28 28 27 27 26 27 27 27 27 27 27 26 26 25 25 25 24 24 24 24 24 24 24 24 24 24 24 24 24 23 23 23 22 23 23 24 25 26 26 26 26 27 28 29 30 30 31 32 32 32 32 32 32 32 33 33 33 34 34 34 34 35 35 35
27 27 27 27 27 28 28 28 28 27 28 28 28 28 28 28 28 28 27 28 28 28 28 27 27 26 26 26 26 27 27 27 27 27 26 26 25 25 24 24 24 24 24 24 24 24 24 24 24 24 24 24 24 23 23 23 24 24 25 26 27 27 26 27 28 29 29 30 31 31 32 32 32 32 32 32 32 32 33 33 33 34 34 34 34 34
27 27 28 28 28 28 28 28 27 27 28 28 28 28 28 28 28 28 28 27 28 28 27 27 27 26 26 25 26 26 27 27 27 27 27 27 26 25 25 24 24 24 24 24 24 24 24 24 24 24 24 24 24 24 24 24 24 25 26 27 27 27 27 27 28 28 29 30 30 31 31 32 32 32 32 32 32 32 32 32 32 33 33 33 33 33
27 27 28 28 28 28 27 27 28 28 28 28 28 28 28 28 28 28 28 28 28 27 27 27 27 26 26 25 25 25 26 26 27 27 27 27 27 26 25 25 25 25 25 24 24 24 24 24 24 24 25 25 25 25 25 25 26 26 27 27 28 28 28 28 29 29 29 30 30 31 31 32 32 32 31 31 31 31 31 31 31 31 32 32 32 32
27 27 27 28 28 28 27 28 28 28 28 28 29 29 29 29 29 28 28 28 28 27 27 27 27 26 26 25 25 25 25 25 26 27 27 27 27 27 26 26 25 25 25 25 25 25 25 25 25 25 25 25 25 25 26 26 27 27 28 28 28 29 29 29 29 30 30 30 31 31 32 32 32 32 32 31 31 31 31 31 30 31 31 31 31 31
27 27 27 27 27 27 28 28 28 28 28 28 29 29 29 29 29 29 29 28 28 28 27 27 27 26 26 26 25 25 25 25 26 26 27 27 27 27 27 26 26 26 26 26 25 25 25 25 25 25 26 26 26 26 27 27 28 29 29 29 29 29 29 30 30 30 31 31 31 31 32 32 32 32 32 32 31 31 30 30 30 30 30 30 30 30
27 27 27 27 27 27 28 28 28 28 28 28 29 29 30 30 30 29 29 29 29 28 28 27 26 26 26 26 25 25 25 25 26 26 27 27 28 28 27 27 27 27 26 26 26 26 26 25 25 26 26 26 26 27 27 28 29 29 30 30 30 30 30 30 30 31 31 31 31 31 32 32 32 32 32 32 32 31 30 30 29 29 29 30 30 30
27 27 27 27 27 27 28 28 28 28 28 29 29 29 30 30 30 30 30 29 29 28 28 27 26 26 25 25 25 25 25 25 26 26 26 27 27 27 28 28 27 27 27 26 26 26 26 25 25 25 25 26 27 27 28 28 29 29 30 30 30 31 31 31 30 30 30 31 31 31 32 32 32 33 33 32 32 31 30 29 29 29 29 29 29 29
28 28 28 27 27 27 28 28 28 28 28 29 29 29 30 30 30 30 30 30 29 29 28 27 26 26 25 25 25 25 25 25 25 26 26 27 27 27 27 28 28 28 27 27 27 26 26 25 25 25 25 26 27 27 28 28 29 29 29 30 30 31 31 31 31 30 30 30 31 31 31 32 32 33 33 32 32 31 30 29 28 28 28 29 29 29
28 28 28 28 28 28 28 28 28 28 29 29 29 29 30 30 30 30 30 30 30 29 28 28 27 26 25 25 25 24 25 25 25 25 26 26 27 27 27 27 27 27 27 28 27 27 26 26 25 24 24 25 27 28 28 28 28 29 29 30 30 31 31 31 31 31 31 31 31 31 31 31 32 32 32 32 32 31 30 29 28 28 28 29 29 29
Wind_Direction
311 311 311 310 308 307 305 304 303 302 301 301 301 302 302 301 301 300 299 298 298 299 301 303 304 306 307 309 311 312 313 313 312 309 306 302 299 295 291 287 285 283 283 283 283 282 281 279 276 274 272 270 268 267 266 266 266 266 267 267 268 268 268 269 269 269 269 269 269 269 269 269 269 269 270 270 271 271 271 272 272 272 272 271 271 271
312 312 312 312 311 309 308 307 305 303 303 302 303 303 303 303 302 301 300 300 300 301 302 304 305 307 310 312 314 316 317 316 313 310 307 303 300 298 295 293 292 291 290 290 288 286 284 282 280 278 276 274 273 272 271 270 270 269 269 269 269 269 269 269 268 268 268 268 268 268 268 268 268 269 269 269 270 270 270 271 271 271 271 271 271 271
313 314 315 315 314 312 311 310 308 306 305 305 305 306 307 307 306 304 303 302 302 302 303 304 306 309 311 314 316 316 316 314 312 308 305 301 298 296 294 292 291 289 288 286 284 281 279 278 277 276 275 274 273 272 272 271 271 270 270 269 269 268 268 268 267 267 267 267 267 268 268 268 269 269 269 269 269 270 270 270 270 270 271 271 271 270
315 316 317 318 318 317 316 314 312 310 309 309 310 311 313 313 312 310 308 306 305 304 305 307 308 311 313 314 314 314 312 310 307 303 299 296 293 291 289 287 286 284 282 280 277 276 274 273 272 272 272 271 271 271 270 270 270 269 269 269 268 267 267 267 266 266 266 267 268 268 269 269 269 270 269 269 269 270 270 270 270 270 270 270 270 270
315 317 318 320 320 320 320 319 317 316 315 315 317 318 320 320 319 316 314 311 310 309 309 309 310 311 312 312 311 309 307 304 301 298 294 291 289 287 285 284 282 281 280 278 276 275 274 273 272 271 271 271 270 270 270 270 269 269 269 268 268 267 267 267 267 267 267 268 268 269 269 270 270 270 270 270 270 270 270 270 270 270 270 270 270 270
314 315 317 318 319 320 320 320 319 318 318 319 320 322 322 322 321 319 317 315 313 312 310 310 309 309 308 307 306 304 302 299 297 295 293 291 289 287 286 285 284 283 282 281 279 278 276 275 274 273 272 271 271 271 270 270 270 270 270 270 269 269 269 268 268 268 269 269 269 270 270 270 270 270 270 270 270 270 270 270 270 270 269 269 269 269
311 312 314 315 316 316 317 317 317 318 318 319 319 320 320 320 318 317 315 313 311 310 308 306 305 304 303 302 300 298 297 295 294 293 292 291 290 289 289 288 287 286 285 283 282 280 278 276 275 274 273 272 272 271 271 271 271 271 271 271 271 270 270 270 269 269 270 270 270 270 270 271 271 271 271 271 270 270 270 269 269 269 268 268 268 267
308 309 310 311 312 313 314 315 315 316 316 316 316 316 316 315 314 313 311 309 308 306 304 302 300 298 296 295 294 292 291 291 290 290 290 290 290 289 289 288 287 286 284 283 281 279 278 277 275 274 274 273 273 272 272 272 272 272 271 271 271 270 270 270 270 270 271 271 271 272 272 272 272 272 271 271 270 270 269 269 268 267 267 266 265 264
308 308 309 310 310 311 312 313 314 314 314 313 313 312 312 311 310 309 307 306 304 302 299 297 295 293 291 290 289 288 287 287 286 286 286 286 286 286 286 285 284 283 282 281 280 279 277 276 276 275 274 274 273 273 273 272 272 272 271 271 270 270 271 271 272 272 272 273 273 273 273 272 272 272 271 270 269 268 268 267 265 264 263 262 261 259
310 311 312 313 313 313 313 312 312 312 312 311 311 310 309 309 308 306 305 303 301 299 297 294 292 291 290 289 288 286 286 285 285 284 284 284 284 284 283 283 282 281 281 280 279 278 277 276 275 275 275 274 274 274 273 273 273 272 272 272 272 272 272 273 273 274 274 274 273 273 272 272 271 270 269 268 267 266 264 263 261 260 258 257 256 255
314 315 316 317 317 317 316 315 314 313 312 311 311 310 310 309 307 305 303 302 301 299 297 295 293 291 290 289 288 287 286 286 286 286 285 285 285 284 284 283 283 282 281 280 279 279 278 277 276 276 276 276 275 275 275 274 274 274 273 273 274 274 274 275 275 274 274 273 273 272 271 269 268 267 265 264 262 261 259 257 256 255 254 253 253 254
317 318 319 319 319 319 318 318 317 316 314 312 311 310 310 308 306 304 302 301 301 299 298 296 295 294 292 291 291 290 289 289 288 288 287 287 287 286 285 284 284 283 283 282 281 280 280 279 279 279 278 278 278 277 277 276 276 275 275 275 276 276 276 276 275 274 273 272 271 269 267 266 264 262 261 259 257 255 254 253 253 253 253 254 256 257
319 320 320 320 320 319 318 317 316 315 314 312 310 309 308 307 306 304 302 302 301 301 300 299 298 298 297 296 295 294 294 294 293 292 291 290 289 288 288 287 286 286 285 285 284 283 283 282 282 282 281 281 280 279 279 278 277 277 277 277 277 277 276 275 274 272 271 269 267 265 263 261 259 257 255 254 253 252 252 253 253 255 257 258 260 263
319 319 319 319 319 318 317 317 315 314 313 312 311 310 309 308 307 306 304 303 303 303 302 301 300 300 300 300 299 298 298 298 297 297 296 295 294 293 292 291 291 290 289 289 288 287 287 286 285 284 284 283 282 281 280 279 279 279 278 278 277 276 275 273 271 269 267 264 262 260 257 256 254 253 252 252 252 253 254 255 257 259 261 263 265 267
318 318 318 318 317 317 317 316 315 315 315 314 313 312 311 310 309 308 306 305 305 305 304 304 303 303 302 301 301 300 300 300 299 299 298 298 297 296 296 295 295 294 293 292 292 291 290 289 288 286 285 284 282 281 280 280 279 279 278 277 276 274 272 270 267 264 262 259 256 254 253 252 251 251 252 253 254 256 257 259 261 263 265 267 269 270
316 316 316 317 317 317 317 316 316 315 316 315 314 313 312 311 311 310 309 308 308 308 307 306 305 304 303 303 302 301 300 300 300 299 299 298 298 297 296 295 295 294 294 293 292 292 291 290 288 287 285 283 282 281 280 279 279 278 277 275 273 271 268 265 261 259 256 254 252 251 250 250 251 252 253 255 257 259 261 263 264 266 267 269 270 271
316 316 316 316 316 317 317 317 317 316 316 315 314 314 313 313 313 312 312 312 311 310 309 308 306 304 303 304 304 303 302 300 300 300 299 298 297 296 294 294 293 293 292 292 292 291 290 289 287 285 284 282 281 280 279 278 277 276 274 272 269 266 262 259 256 253 251 250 249 249 250 251 253 254 256 258 260 262 263 265 266 267 268 269 270 270
316 316 316 316 316 317 317 317 317 317 316 316 315 315 315 315 315 314 314 314 313 311 311 309 308 307 305 303 303 304 304 302 302 302 302 301 299 297 295 294 294 294 293 293 292 291 290 289 287 285 283 281 280 279 278 276 275 273 270 267 263 260 256 253 251 250 249 249 249 250 252 254 255 257 259 261 262 264 265 266 267 267 268 268 269 269
316 317 317 317 318 318 319 319 318 318 317 317 317 317 317 317 317 316 316 315 314 313 312 310 310 310 309 307 306 306 306 305 305 306 306 305 302 299 297 297 297 297 296 295 294 294 292 290 288 286 284 281 280 278 276 274 272 269 266 262 258 254 252 250 249 249 249 250 251 253 254 256 258 260 261 262 264 265 265 266 266 267 267 267 267 267
317 318 319 319 319 320 320 320 319 318 318 318 318 319 319 319 319 318 318 317 316 315 314 313 312 312 312 311 310 309 308 308 308 308 309 308 304 301 300 299 299 299 298 297 297 296 294 292 289 287 284 281 279 277 275 272 269 265 261 257 254 251 250 249 249 250 251 252 254 255 257 259 260 261 262 263 264 265 265 266 266 266 266 266 266 266
318 319 320 320 321 321 320 320 320 319 319 319 319 320 321 320 320 319 318 317 317 316 316 315 314 314 313 312 311 310 310 309 309 309 310 309 306 303 300 300 300 300 299 298 298 297 295 292 289 286 283 281 278 276 273 269 265 261 257 254 252 251 250 251 251 252 254 255 256 258 259 260 261 262 263 264 264 265 265 265 265 265 265 265 266 267
319 320 320 319 320 321 320 320 319 319 319 319 319 320 320 320 319 318 318 317 316 316 315 315 315 314 313 312 311 311 310 310 309 309 310 309 306 303 301 300 300 300 300 298 298 296 294 291 288 285 282 279 277 273 270 266 262 259 256 254 253 253 253 253 254 255 256 257 259 259 260 261 262 263 264 264 264 265 265 265 265 265 266 267 268 269
319 319 319 319 319 319 320 319 319 319 318 319 318 318 318 318 318 318 317 316 315 315 315 315 315 314 313 312 312 311 310 310 309 309 309 308 306 303 301 300 300 300 299 298 297 295 293 290 287 284 281 278 274 270 266 263 260 258 256 255 255 255 256 256 257 258 259 260 260 261 261 262 263 263 264 264 264 265 265 265 266 267 268 269 270 271
318 318 318 318 318 319 318 318 318 318 318 318 317 317 317 317 317 316 315 315 315 315 315 315 315 314 313 312 311 310 310 309 308 308 308 308 306 304 301 301 300 300 299 298 296 294 292 288 285 283 279 276 271 267 264 261 260 258 258 257 258 258 258 259 260 260 261 261 262 262 262 263 263 264 264 265 265 265 266 267 268 269 271 272 273 274
317 317 318 318 318 318 318 317 317 317 316 316 316 316 316 316 316 316 315 314 314 314 315 315 315 314 312 311 311 310 308 308 307 307 308 307 306 304 302 301 300 300 298 297 295 293 290 287 284 281 277 273 268 265 262 260 260 259 259 259 260 260 261 261 262 262 262 263 263 263 264 264 264 264 265 265 266 267 268 270 271 272 273 275 276 277
317 317 317 317 317 317 317 317 316 316 315 315 315 315 315 315 315 315 314 314 314 314 314 314 313 312 311 310 310 309 307 306 306 306 307 306 306 304 302 301 300 300 298 296 294 292 289 286 283 280 276 271 267 264 261 261 260 261 261 261 262 262 263 263 264 264 264 264 264 264 264 264 264 265 265 266 267 269 271 272 274 275 276 277 278 279
317 317 317 317 317 317 317 317 316 316 315 315 314 314 314 314 314 314 314 313 313 313 313 313 312 311 310 310 309 308 306 305 305 305 305 306 306 305 303 301 300 299 298 295 293 291 288 285 282 279 275 270 267 264 262 262 262 262 262 263 264 264 265 265 265 265 265 265 265 265 265 265 265 266 266 268 269 271 272 274 275 276 277 278 279 280
317 317 317 317 317 317 317 317 316 316 315 315 314 314 314 314 314 314 314 313 313 313 313 312 312 311 310 310 309 308 306 305 304 304 305 306 306 305 303 302 300 299 297 294 292 289 287 283 280 277 274 271 267 265 264 264 263 264 264 265 265 266 266 267 267 267 266 266 266 266 266 266 267 267 268 269 270 272 273 275 276 277 278 279 280 282
317 317 317 317 317 317 317 316 316 316 315 315 315 315 315 315 315 315 314 314 313 314 313 313 312 311 311 310 310 308 307 305 305 305 305 306 307 306 304 303 301 298 296 293 290 287 285 282 279 277 274 271 269 267 266 266 266 265 266 266 267 267 268 268 267 267 267 267 267 268 268 268 269 269 270 272 273 274 276 277 278 280 281 282 283 284
317 317 317 317 317 317 316 316 316 315 315 315 315 315 315 315 316 316 315 315 314 314 314 313 313 312 311 311 310 309 307 305 305 305 305 307 307 306 305 303 300 297 295 291 288 284 282 281 280 278 275 272 270 269 269 268 268 268 268 268 268 268 268 268 268 268 268 269 269 270 270 271 272 273 274 276 277 279 281 282 283 284 285 285 286 287
316 316 316 316 316 316 316 316 316 315 315 315 315 315 315 316 316 316 316 315 315 314 314 314 313 312 312 311 310 309 307 305 304 304 305 306 306 305 304 302 299 296 293 289 285 281 279 279 279 278 277 275 273 272 271 270 270 270 270 270 270 270 270 270 270 270 271 271 272 273 274 275 277 278 279 281 282 284 285 286 287 288 288 289 289 290
315 315 316 316 316 316 316 316 316 316 316 316 315 315 316 316 316 316 316 315 315 314 314 314 313 312 312 311 310 309 306 304 303 304 305 305 305 304 302 300 297 294 291 288 285 280 277 275 276 277 277 276 275 274 273 272 272 272 272 272 272 272 272 272 272 273 274 275 276 277 278 279 280 282 283 284 285 287 287 289 289 290 291 291 291 291
314 315 315 316 316 316 316 316 316 316 316 316 316 316 316 316 316 316 315 315 314 314 314 313 313 312 312 311 310 309 307 304 303 303 304 304 304 303 301 299 296 293 290 287 284 281 277 274 273 274 275 276 276 275 275 274 274 274 274 274 274 274 274 274 275 276 277 278 279 280 281 282 283 284 285 286 287 288 289 290 291 291 292 292 292 292
314 315 315 315 316 316 316 316 317 317 317 316 316 316 316 316 315 315 315 314 314 314 313 313 312 311 311 310 309 308 306 304 303 303 303 303 302 301 300 298 295 292 289 286 283 281 277 274 271 271 272 273 275 276 276 276 275 275 275 275 275 275 276 276 277 277 278 279 280 281 282 283 284 285 286 287 288 289 289 290 290 290 290 291 291 291
314 314 315 315 316 316 316 316 316 317 317 316 316 316 316 315 315 315 314 314 313 313 312 312 311 311 310 309 308 307 305 303 303 303 303 302 301 299 298 296 293 291 288 286 283 281 278 275 273 270 270 270 272 273 274 275 276 276 276 276 275 276 276 277 277 278 279 279 280 281 282 283 284 285 286 287 287 288 288 288 289 289 289 289 290 290
313 314 314 315 315 315 315 316 316 316 316 316 316 316 315 315 315 314 314 313 313 312 312 311 311 310 310 309 308 306 304 302 302 302 301 300 299 298 296 294 292 290 287 285 283 281 279 277 274 272 270 269 268 269 270 272 273 274 274 275 275 275 276 276 277 277 278 279 279 280 281 282 283 284 285 286 286 287 287 287 288 288 288 288 289 289
312 313 313 314 314 314 315 315 315 315 315 315 315 315 315 315 314 314 313 313 312 312 311 310 310 310 309 308 307 306 304 302 301 301 300 299 298 297 295 293 290 288 286 284 282 281 279 278 276 274 272 270 267 265 265 266 267 269 270 271 272 273 273 274 275 275 276 277 277 278 279 280 281 282 283 284 285 285 286 286 287 287 288 288 289 289
312 312 312 313 313 313 314 314 314 314 314 314 314 314 314 314 314 313 313 312 312 311 311 310 310 309 309 308 307 306 304 302 301 300 299 298 297 296 294 292 289 287 285 283 282 280 279 278 276 275 273 271 268 265 263 262 263 264 265 267 268 269 270 271 272 273 273 274 275 276 277 278 280 281 282 282 283 284 285 285 286 287 287 288 288 289
311 311 311 312 312 312 312 313 313 313 313 314 314 314 313 313 313 313 313 312 311 311 310 310 309 309 308 307 306 305 303 302 300 299 298 297 296 295 293 291 288 286 284 283 281 280 279 278 277 275 273 271 269 266 264 263 262 262 263 264 264 265 266 268 269 270 271 273 274 275 276 277 278 279 280 281 282 283 283 284 285 286 286 287 288 288
310 310 311 311 311 311 311 312 312 312 312 313 313 313 313 313 313 313 312 312 311 311 310 310 309 309 308 307 306 305 304 302 301 300 298 297 296 294 293 291 288 286 284 282 281 280 280 278 277 276 274 272 270 268 266 265 264 263 263 262 262 263 264 266 268 269 271 272 273 274 275 276 277 278 279 280 280 281 282 283 284 284 285 286 287 287
309 310 310 310 311 311 311 311 311 311 312 312 312 313 313 313 313 313 313 312 311 310 310 310 310 309 308 308 306 305 304 303 302 301 299 298 296 295 293 291 288 286 284 282 281 280 280 279 278 277 276 274 272 270 268 267 266 265 265 264 263 263 265 266 268 269 271 272 273 273 274 275 276 277 277 278 279 280 281 282 283 283 284 285 285 286
309 309 309 310 310 310 310 310 310 311 311 312 312 312 312 312 312 312 312 312 311 310 310 310 309 309 308 307 306 305 304 303 302 301 300 298 296 295 293 290 288 286 284 282 281 280 279 279 279 278 277 276 275 273 272 270 269 268 267 267 266 266 267 268 269 270 271 272 273 273 274 275 275 276 277 278 278 279 280 281 282 282 283 283 284 284
308 309 309 309 309 309 309 310 310 310 311 311 311 312 312 312 312 312 312 311 310 310 309 309 308 308 307 306 305 304 304 303 302 301 300 298 296 294 292 290 287 285 283 281 280 279 279 278 278 278 277 277 276 275 274 272 271 270 270 270 270 270 270 270 271 272 273 273 274 274 275 275 276 276 277 278 278 279 280 281 281 282 282 282 282 282
308 308 309 309 309 309 309 309 310 310 310 311 311 311 312 312 312 312 311 311 310 309 309 308 308 307 307 306 305 304 303 302 302 301 299 298 297 295 293 290 287 285 282 281 279 278 277 277 277 276 276 276 276 275 274 273 272 271 271 272 272 273 273 273 274 274 274 275 276 276 276 277 277 277 278 278 279 279 280 280 281 281 281 281 281 281
308 308 308 308 309 309 309 309 309 310 310 311 311 311 311 312 312 311 311 310 310 309 308 308 307 307 306 305 304 303 302 302 301 300 299 298 297 295 293 291 288 286 283 282 280 279 278 277 276 276 276 276 276 276 275 274 273 273 273 274 275 276 276 277 277 277 277 277 278 278 278 278 278 279 279 279 279 280 280 280 281 281 281 281 280 281
307 307 308 308 308 308 308 309 309 310 310 310 311 311 311 311 311 311 311 310 309 309 308 308 307 307 306 305 304 303 302 301 300 298 298 297 296 295 293 291 289 287 285 283 281 280 279 278 277 277 276 276 276 276 276 276 276 276 276 276 277 278 279 279 279 280 280 280 280 280 280 281 281 281 281 281 281 281 281 281 281 281 280 280 280 280
306 307 307 307 307 308 308 308 309 309 310 310 311 311 311 311 311 311 311 310 310 309 308 308 308 307 306 305 303 302 301 300 299 298 297 296 296 295 294 292 290 289 287 285 284 282 281 280 279 279 279 278 278 278 278 278 278 278 278 278 279 279 280 281 281 282 282 282 283 283 283 283 283 283 283 283 282 282 282 282 281 281 281 280 280 280
306 306 306 307 307 307 308 308 309 309 310 310 310 311 311 311 311 311 311 310 310 309 309 308 308 307 306 305 304 302 301 300 299 298 297 296 296 295 294 293 292 290 288 287 285 284 283 282 282 281 281 281 280 280 279 279 279 279 279 280 280 281 281 282 283 283 284 284 285 285 285 285 285 285 284 283 283 283 282 282 282 281 281 281 280 280
306 306 306 306 307 307 307 308 308 309 309 310 310 311 311 311 311 311 310 310 309 309 309 308 308 307 306 305 303 302 301 301 300 299 298 297 297 296 295 294 293 292 291 289 288 287 286 285 284 284 284 283 282 281 280 279 280 280 281 282 282 283 283 284 284 285 285 285 285 285 286 286 285 285 284 284 283 283 282 281 281 281 281 281 281 281
306 306 306 307 307 307 307 308 308 309 309 310 310 311 311 311 311 311 310 310 309 309 309 308 308 307 306 305 303 303 302 302 301 300 299 298 298 297 297 296 295 295 294 292 291 290 289 288 287 287 287 286 285 284 283 282 282 282 283 284 284 284 285 285 285 285 285 285 285 285 285 285 285 285 285 284 284 283 282 281 280 280 280 281 281 281
306 306 306 307 307 307 307 308 308 309 309 310 310 311 311 311 311 310 310 309 309 309 309 308 307 307 306 305 303 303 302 302 302 301 300 299 299 298 298 297 297 296 295 294 293 293 292 291 291 290 289 289 288 287 286 285 285 284 284 285 285 285 285 285 285 285 285 285 285 285 285 285 284 284 284 284 284 283 282 281 280 280 281 281 281 281
Height
3066 3065 3063 3062 3061 3060 3059 3058 3058 3057 3056 3055 3055 3054 3054 3053 3053 3052 3052 3051 3050 3050 3049 3049 3048 3048 3047 3046 3045 3044 3044 3043 3043 3043 3043 3043 3043 3043 3043 3043 3043 3043 3043 3043 3044 3044 3045 3045 3046 3047 3047 3048 3048 3049 3049 3050 3050 3051 3051 3051 3052 3052 3052 3052 3052 3052 3052 3052 3052 3052 3052 3052 3052 3053 3053 3053 3053 3054 3054 3054 3054 3054 3055 3055 3055 3055
3064 3063 3062 3060 3059 3058 3057 3056 3056 3055 3054 3053 3052 3052 3052 3051 3050 3050 3049 3049 3048 3048 3047 3047 3047 3046 3045 3045 3044 3043 3042 3042 3042 3042 3042 3042 3042 3042 3043 3043 3043 3043 3042 3042 3043 3043 3044 3044 3045 3046 3046 3047 3047 3047 3048 3048 3049 3049 3049 3049 3050 3050 3050 3050 3050 3050 3050 3050 3049 3049 3049 3050 3050 3050 3050 3051 3051 3051 3051 3051 3051 3051 3052 3052 3052 3052
3062 3061 3060 3058 3057 3056 3055 3055 3054 3053 3052 3052 3051 3050 3050 3049 3048 3048 3047 3047 3047 3046 3046 3046 3045 3044 3044 3043 3042 3042 3042 3041 3041 3042 3042 3042 3042 3042 3042 3042 3042 3042 3042 3042 3042 3042 3043 3043 3044 3044 3045 3045 3046 3046 3047 3047 3047 3047 3047 3047 3047 3047 3047 3047 3047 3047 3047 3047 3047 3047 3047 3047 3047 3047 3047 3047 3048 3048 3048 3048 3048 3048 3048 3048 3048 3048
3061 3060 3058 3057 3056 3055 3054 3053 3052 3052 3051 3050 3049 3048 3048 3047 3047 3046 3046 3045 3045 3044 3044 3044 3043 3043 3042 3041 3041 3041 3041 3041 3041 3041 3041 3041 3041 3041 3041 3041 3041 3041 3041 3041 3041 3041 3041 3042 3042 3042 3043 3043 3044 3044 3044 3044 3045 3045 3045 3045 3045 3045 3045 3045 3044 3044 3044 3044 3044 3044 3044 3044 3044 3044 3044 3045 3045 3045 3045 3045 3045 3045 3045 3045 3045 3045
3060 3058 3057 3056 3055 3054 3053 3052 3051 3050 3049 3049 3048 3047 3046 3046 3045 3045 3044 3044 3043 3043 3042 3042 3042 3041 3041 3040 3040 3040 3040 3040 3040 3040 3040 3040 3040 3040 3040 3040 3040 3039 3039 3039 3039 3039 3039 3040 3040 3041 3041 3041 3042 3042 3042 3042 3042 3042 3042 3042 3042 3042 3042 3042 3042 3041 3041 3041 3041 3041 3041 3041 3042 3042 3042 3042 3042 3042 3042 3042 3042 3042 3042 3042 3042 3042
3058 3057 3057 3055 3054 3053 3052 3051 3050 3049 3048 3047 3047 3046 3045 3045 3044 3044 3043 3042 3042 3042 3042 3041 3041 3040 3040 3040 3039 3039 3039 3039 3039 3039 3039 3039 3039 3039 3038 3038 3038 3037 3037 3037 3037 3037 3037 3038 3038 3038 3039 3039 3039 3040 3040 3040 3040 3040 3040 3040 3039 3039 3039 3039 3039 3038 3038 3038 3038 3038 3039 3038 3038 3038 3038 3038 3038 3038 3038 3038 3038 3038 3038 3038 3038 3038
3057 3056 3055 3054 3053 3052 3051 3050 3049 3048 3047 3046 3045 3044 3044 3043 3043 3042 3042 3042 3041 3041 3040 3040 3040 3039 3039 3039 3039 3038 3038 3037 3037 3037 3037 3037 3037 3036 3036 3036 3035 3035 3035 3035 3035 3035 3036 3036 3036 3037 3037 3037 3037 3037 3037 3037 3037 3037 3037 3037 3037 3037 3036 3036 3036 3036 3036 3036 3036 3036 3036 3035 3035 3035 3035 3035 3035 3035 3034 3034 3034 3034 3034 3034 3034 3034
3056 3055 3054 3053 3052 3051 3050 3049 3048 3047 3046 3045 3044 3043 3042 3042 3042 3041 3041 3040 3040 3040 3039 3039 3038 3038 3038 3038 3037 3037 3037 3036 3036 3036 3036 3035 3035 3034 3034 3033 3033 3033 3033 3033 3033 3033 3033 3034 3034 3034 3034 3035 3035 3035 3035 3035 3035 3034 3034 3034 3034 3033 3033 3033 3033 3033 3033 3033 3032 3032 3032 3032 3032 3032 3031 3031 3031 3031 3031 3031 3031 3031 3031 3031 3031 3032
3055 3054 3053 3052 3051 3050 3049 3048 3047 3046 3045 3044 3043 3042 3042 3041 3040 3040 3039 3039 3039 3038 3038 3037 3037 3037 3037 3037 3036 3036 3036 3035 3035 3034 3034 3034 3033 3033 3032 3032 3032 3031 3031 3031 3031 3031 3032 3032 3032 3032 3032 3032 3032 3032 3032 3032 3032 3032 3031 3031 3031 3030 3030 3030 3030 3030 3030 3029 3029 3029 3028 3028 3028 3028 3027 3027 3027 3027 3027 3027 3027 3028 3028 3028 3028 3029
3053 3052 3051 3050 3049 3048 3047 3047 3046 3045 3044 3042 3042 3041 3040 3040 3039 3038 3038 3037 3037 3037 3037 3036 3036 3036 3035 3035 3035 3034 3034 3034 3033 3033 3032 3032 3032 3031 3030 3030 3030 3029 3029 3029 3029 3029 3029 3030 3030 3030 3030 3030 3030 3030 3030 3029 3029 3028 3028 3028 3027 3027 3027 3027 3027 3027 3026 3026 3026 3025 3025 3025 3024 3024 3024 3024 3024 3024 3024 3025 3025 3025 3026 3026 3026 3027
3051 3050 3049 3048 3047 3046 3045 3045 3044 3043 3042 3041 3040 3040 3039 3038 3037 3037 3036 3035 3035 3035 3035 3034 3034 3033 3033 3033 3033 3032 3032 3032 3031 3031 3030 3030 3029 3029 3028 3028 3027 3027 3027 3027 3027 3027 3027 3027 3027 3027 3027 3027 3027 3027 3026 3026 3025 3025 3024 3024 3024 3024 3023 3023 3023 3023 3022 3022 3022 3022 3022 3021 3021 3021 3021 3021 3021 3022 3022 3022 3023 3023 3023 3024 3024 3025
3049 3048 3047 3046 3045 3044 3043 3042 3042 3041 3040 3040 3039 3038 3037 3037 3036 3035 3034 3034 3033 3033 3032 3032 3032 3031 3031 3030 3030 3030 3029 3029 3028 3028 3027 3027 3027 3026 3026 3025 3025 3025 3025 3024 3024 3024 3024 3024 3025 3025 3024 3024 3024 3023 3023 3022 3022 3021 3021 3020 3020 3020 3020 3020 3020 3019 3019 3019 3019 3018 3018 3018 3018 3018 3018 3019 3019 3019 3020 3020 3021 3021 3022 3022 3022 3022
3047 3046 3045 3044 3043 3042 3042 3041 3040 3039 3038 3038 3037 3036 3036 3035 3035 3034 3033 3032 3031 3031 3030 3030 3029 3028 3028 3027 3027 3027 3026 3026 3025 3025 3024 3024 3023 3023 3023 3022 3022 3022 3022 3022 3022 3022 3022 3022 3022 3022 3021 3021 3020 3019 3019 3018 3018 3017 3017 3017 3017 3017 3017 3017 3016 3016 3016 3016 3016 3016 3016 3016 3016 3016 3017 3017 3017 3017 3018 3018 3019 3019 3019 3020 3020 3020
3046 3045 3044 3043 3042 3041 3040 3039 3038 3037 3037 3036 3036 3035 3034 3033 3033 3032 3031 3030 3030 3029 3028 3027 3027 3026 3026 3025 3025 3024 3024 3023 3023 3022 3022 3021 3021 3020 3020 3020 3019 3019 3019 3018 3018 3018 3018 3018 3018 3018 3017 3017 3016 3016 3015 3015 3014 3014 3014 3014 3014 3014 3014 3013 3013 3013 3013 3013 3013 3013 3014 3014 3014 3014 3015 3015 3015 3016 3016 3017 3017 3017 3017 3017 3018 3018
3045 3044 3042 3042 3041 3040 3039 3038 3037 3036 3035 3035 3034 3033 3032 3031 3031 3030 3029 3029 3028 3027 3027 3026 3025 3024 3023 3023 3022 3022 3022 3021 3021 3020 3019 3019 3018 3018 3017 3017 3017 3016 3016 3016 3015 3015 3015 3015 3015 3015 3014 3014 3013 3012 3012 3012 3011 3011 3011 3011 3011 3011 3011 3011 3011 3011 3011 3011 3011 3012 3012 3012 3012 3013 3013 3013 3014 3014 3014 3015 3015 3015 3015 3015 3016 3016
3044 3042 3042 3041 3039 3038 3037 3037 3036 3035 3034 3033 3032 3032 3031 3030 3029 3028 3027 3027 3026 3026 3025 3024 3023 3022 3021 3021 3020 3020 3020 3019 3019 3018 3018 3017 3017 3016 3015 3015 3015 3014 3014 3013 3013 3012 3012 3012 3012 3012 3012 3011 3010 3010 3009 3009 3009 3009 3009 3009 3009 3009 3008 3008 3009 3009 3009 3009 3009 3010 3010 3010 3011 3011 3011 3012 3012 3012 3012 3012 3013 3013 3013 3013 3013 3014
3042 3042 3041 3039 3038 3037 3037 3035 3034 3033 3033 3032 3031 3030 3029 3028 3027 3027 3026 3025 3024 3024 3023 3022 3021 3021 3020 3019 3018 3018 3017 3017 3017 3017 3017 3016 3015 3014 3013 3013 3012 3012 3012 3011 3011 3010 3010 3010 3010 3009 3009 3008 3007 3007 3007 3007 3006 3006 3006 3006 3006 3007 3007 3007 3007 3007 3007 3007 3008 3008 3008 3009 3009 3009 3009 3010 3010 3010 3011 3011 3011 3011 3011 3012 3012 3012
3041 3040 3039 3038 3037 3036 3035 3034 3033 3032 3032 3031 3030 3029 3028 3027 3026 3025 3024 3023 3023 3022 3021 3020 3020 3019 3018 3017 3016 3016 3015 3015 3015 3015 3015 3014 3013 3012 3011 3010 3010 3010 3010 3009 3008 3008 3007 3007 3007 3007 3006 3005 3005 3004 3004 3004 3004 3004 3004 3004 3004 3004 3004 3005 3005 3005 3005 3006 3006 3006 3007 3007 3007 3007 3007 3008 3008 3008 3009 3009 3009 3009 3009 3010 3010 3010
3040 3039 3038 3037 3036 3035 3034 3033 3032 3031 3030 3029 3028 3027 3027 3026 3025 3024 3023 3022 3021 3020 3020 3019 3018 3017 3017 3015 3015 3014 3013 3013 3013 3013 3012 3012 3011 3010 3008 3007 3007 3007 3007 3006 3006 3005 3005 3005 3004 3004 3003 3003 3002 3002 3002 3002 3002 3002 3002 3002 3002 3002 3003 3003 3003 3003 3004 3004 3004 3005 3005 3005 3005 3006 3006 3006 3006 3007 3007 3007 3007 3007 3007 3008 3008 3008
3038 3037 3036 3035 3035 3034 3033 3032 3031 3030 3029 3028 3027 3026 3025 3024 3023 3022 3022 3021 3020 3019 3018 3017 3016 3016 3015 3014 3013 3012 3011 3011 3011 3010 3010 3010 3009 3007 3006 3005 3004 3004 3004 3003 3003 3002 3002 3002 3002 3001 3001 3000 3000 3000 3000 3000 3000 3000 3000 3000 3001 3001 3001 3001 3002 3002 3002 3002 3003 3003 3003 3003 3004 3004 3004 3004 3004 3005 3005 3005 3005 3005 3006 3006 3006 3006
3037 3036 3035 3034 3033 3032 3031 3030 3029 3028 3027 3027 3026 3025 3024 3023 3022 3021 3020 3019 3018 3017 3016 3015 3015 3014 3013 3012 3011 3010 3009 3009 3008 3008 3008 3008 3007 3005 3003 3002 3002 3002 3002 3001 3001 3000 3000 2999 2999 2998 2998 2998 2998 2998 2998 2998 2998 2998 2998 2998 2999 2999 2999 2999 3000 3000 3000 3001 3001 3001 3002 3002 3002 3002 3002 3002 3002 3003 3003 3003 3003 3003 3004 3004 3004 3004
3035 3034 3033 3032 3031 3030 3029 3029 3028 3027 3026 3025 3024 3023 3022 3022 3021 3020 3019 3017 3017 3016 3015 3014 3013 3012 3011 3010 3009 3008 3007 3006 3006 3006 3006 3006 3005 3003 3001 3000 3000 3000 3000 2999 2998 2998 2997 2997 2997 2996 2996 2996 2996 2996 2996 2996 2996 2996 2997 2997 2997 2997 2997 2998 2998 2998 2999 2999 2999 3000 3000 3000 3000 3000 3000 3001 3001 3001 3001 3001 3001 3002 3002 3002 3002 3002
3034 3033 3032 3031 3030 3029 3028 3027 3026 3025 3024 3023 3022 3022 3021 3020 3019 3018 3017 3016 3015 3014 3013 3012 3012 3010 3009 3008 3007 3006 3005 3004 3003 3003 3003 3004 3003 3002 3000 2998 2998 2998 2997 2997 2996 2996 2995 2995 2994 2994 2994 2994 2994 2994 2994 2994 2994 2994 2995 2995 2995 2995 2996 2996 2996 2997 2997 2997 2997 2998 2998 2998 2998 2998 2998 2998 2999 2999 2999 2999 2999 2999 2999 3000 3000 3000
3032 3032 3031 3030 3029 3028 3027 3026 3025 3024 3023 3022 3021 3020 3019 3019 3018 3017 3016 3015 3014 3013 3012 3011 3010 3009 3007 3006 3005 3004 3002 3002 3001 3001 3001 3001 3001 2999 2998 2997 2996 2996 2995 2994 2994 2993 2993 2992 2992 2992 2992 2992 2992 2992 2992 2992 2992 2993 2993 2993 2993 2994 2994 2994 2995 2995 2995 2995 2996 2996 2996 2996 2996 2996 2996 2997 2997 2997 2997 2997 2997 2997 2997 2997 2997 2998
3031 3030 3029 3028 3027 3026 3025 3024 3023 3022 3022 3021 3020 3019 3018 3017 3016 3015 3014 3013 3012 3011 3010 3009 3008 3007 3006 3004 3003 3002 3000 2999 2998 2998 2998 2998 2998 2997 2996 2994 2994 2993 2993 2992 2992 2991 2991 2990 2990 2990 2990 2991 2991 2991 2991 2991 2991 2991 2991 2991 2992 2992 2992 2992 2993 2993 2993 2993 2994 2994 2994 2994 2994 2994 2994 2995 2995 2995 2995 2995 2995 2995 2995 2995 2995 2996
3030 3029 3028 3027 3026 3025 3024 3023 3022 3021 3020 3019 3018 3017 3017 3016 3015 3014 3012 3011 3010 3009 3008 3007 3007 3005 3004 3003 3002 3000 2998 2997 2996 2996 2996 2996 2996 2995 2993 2992 2992 2991 2991 2990 2989 2989 2988 2988 2988 2988 2988 2989 2989 2989 2989 2989 2989 2989 2989 2990 2990 2990 2990 2991 2991 2991 2991 2992 2992 2992 2992 2992 2992 2992 2992 2992 2993 2993 2993 2993 2993 2993 2993 2993 2993 2993
3028 3027 3027 3025 3024 3023 3022 3021 3020 3019 3018 3017 3016 3016 3015 3014 3013 3012 3011 3009 3008 3007 3006 3005 3004 3003 3002 3001 3000 2998 2997 2995 2994 2993 2993 2993 2993 2992 2991 2990 2989 2989 2988 2988 2987 2987 2986 2986 2986 2986 2987 2987 2987 2987 2987 2987 2987 2987 2987 2988 2988 2988 2988 2989 2989 2989 2989 2989 2990 2990 2990 2990 2990 2990 2991 2991 2991 2991 2991 2991 2991 2991 2991 2991 2991 2991
3027 3026 3025 3024 3023 3022 3021 3020 3018 3017 3016 3015 3014 3013 3012 3012 3011 3010 3009 3007 3006 3005 3004 3003 3002 3001 3000 2999 2998 2996 2994 2992 2991 2990 2990 2990 2990 2990 2989 2988 2987 2987 2986 2986 2985 2985 2985 2984 2984 2984 2985 2985 2985 2985 2985 2986 2986 2986 2986 2986 2986 2986 2987 2987 2987 2987 2987 2987 2987 2988 2988 2988 2988 2988 2988 2988 2988 2988 2989 2989 2989 2989 2989 2989 2989 2989
3025 3024 3023 3022 3021 3020 3019 3018 3017 3016 3014 3013 3012 3011 3010 3009 3008 3007 3006 3005 3004 3003 3002 3001 3000 2998 2997 2997 2995 2994 2992 2990 2988 2988 2987 2988 2988 2987 2987 2986 2985 2984 2984 2984 2983 2983 2983 2982 2982 2982 2983 2983 2983 2983 2983 2983 2984 2984 2984 2984 2984 2984 2985 2985 2985 2985 2985 2985 2985 2986 2986 2986 2986 2986 2986 2986 2986 2986 2986 2986 2986 2986 2986 2986 2986 2986
3023 3022 3021 3020 3019 3018 3017 3016 3015 3014 3013 3011 3010 3009 3007 3007 3006 3005 3004 3003 3002 3001 2999 2998 2997 2996 2995 2994 2993 2992 2990 2987 2986 2985 2985 2985 2985 2985 2984 2983 2983 2982 2982 2982 2982 2982 2981 2981 2981 2981 2981 2981 2981 2981 2981 2981 2982 2982 2982 2982 2982 2982 2982 2982 2983 2983 2983 2983 2983 2983 2983 2983 2983 2983 2983 2983 2983 2983 2983 2983 2983 2983 2983 2983 2983 2983
3022 3021 3020 3019 3017 3017 3016 3014 3013 3012 3011 3010 3008 3007 3006 3004 3003 3002 3001 3000 2999 2998 2997 2996 2995 2994 2992 2992 2991 2990 2988 2986 2984 2983 2983 2983 2983 2982 2982 2982 2981 2980 2980 2980 2980 2980 2980 2979 2979 2979 2979 2979 2979 2979 2979 2979 2979 2980 2980 2980 2980 2980 2980 2980 2981 2981 2981 2981 2981 2981 2981 2981 2981 2981 2981 2981 2981 2980 2980 2980 2980 2980 2979 2980 2980 2980
3020 3019 3018 3017 3016 3015 3013 3012 3011 3010 3009 3008 3006 3005 3004 3002 3001 3000 2999 2998 2997 2996 2995 2994 2992 2992 2990 2989 2988 2987 2986 2984 2982 2981 2981 2981 2980 2980 2980 2979 2979 2978 2978 2978 2978 2978 2978 2978 2977 2977 2977 2977 2977 2977 2977 2977 2977 2977 2978 2978 2978 2978 2978 2978 2978 2978 2978 2978 2978 2978 2978 2978 2978 2978 2978 2978 2978 2977 2977 2977 2977 2977 2976 2976 2976 2977
3017 3017 3016 3015 3014 3012 3012 3010 3009 3008 3007 3006 3004 3003 3002 3001 2999 2998 2997 2996 2995 2994 2992 2992 2990 2989 2988 2987 2986 2985 2983 2982 2980 2979 2979 2979 2978 2978 2978 2977 2977 2977 2976 2976 2976 2977 2977 2977 2977 2976 2976 2975 2975 2975 2975 2975 2975 2975 2976 2976 2976 2976 2976 2976 2976 2976 2976 2976 2976 2976 2976 2976 2975 2975 2975 2975 2975 2975 2974 2974 2974 2973 2973 2973 2973 2973
3016 3015 3014 3012 3012 3010 3009 3008 3007 3006 3005 3003 3002 3001 3000 2999 2997 2996 2995 2994 2993 2992 2990 2989 2988 2987 2986 2985 2984 2983 2981 2979 2978 2977 2977 2977 2976 2976 2976 2975 2975 2975 2974 2974 2974 2975 2975 2975 2975 2975 2974 2974 2974 2973 2973 2973 2973 2973 2973 2974 2974 2973 2973 2973 2973 2974 2974 2974 2973 2973 2973 2973 2973 2973 2972 2972 2972 2972 2972 2972 2971 2971 2970 2970 2970 2970
3014 3012 3012 3010 3009 3008 3007 3006 3005 3004 3002 3002 3000 2999 2998 2997 2996 2994 2993 2992 2991 2990 2988 2987 2986 2985 2984 2983 2982 2981 2980 2978 2976 2975 2975 2974 2974 2974 2974 2973 2973 2973 2972 2972 2973 2973 2973 2973 2973 2973 2973 2973 2972 2972 2972 2971 2971 2971 2971 2972 2972 2972 2971 2971 2972 2972 2972 2972 2971 2971 2971 2971 2970 2970 2970 2970 2969 2969 2969 2969 2968 2968 2968 2967 2967 2967
3012 3011 3009 3008 3007 3006 3005 3004 3003 3002 3001 2999 2998 2997 2996 2995 2994 2992 2991 2990 2989 2988 2987 2985 2984 2983 2982 2981 2981 2979 2978 2977 2975 2974 2973 2972 2972 2972 2972 2972 2971 2971 2971 2971 2971 2971 2971 2971 2972 2972 2972 2972 2972 2971 2970 2970 2969 2969 2969 2969 2969 2969 2969 2969 2969 2969 2969 2969 2969 2969 2968 2968 2968 2967 2967 2967 2967 2967 2966 2966 2966 2965 2965 2964 2964 2964
3010 3009 3007 3007 3005 3004 3003 3002 3001 3000 2999 2997 2996 2995 2994 2993 2992 2991 2989 2988 2987 2986 2985 2983 2982 2981 2980 2979 2978 2977 2976 2975 2973 2972 2971 2971 2970 2970 2970 2970 2969 2969 2969 2968 2968 2969 2969 2969 2969 2969 2970 2970 2970 2970 2969 2969 2968 2968 2968 2967 2967 2967 2967 2967 2967 2967 2967 2967 2967 2967 2966 2966 2965 2965 2965 2964 2964 2964 2963 2963 2962 2962 2962 2961 2961 2961
3008 3007 3006 3005 3003 3002 3001 3000 2999 2998 2997 2996 2994 2993 2992 2991 2990 2989 2987 2986 2985 2984 2983 2982 2981 2979 2978 2977 2976 2975 2974 2973 2972 2971 2970 2969 2968 2968 2968 2968 2968 2967 2967 2967 2967 2967 2967 2967 2967 2967 2967 2968 2968 2968 2968 2967 2967 2967 2967 2966 2966 2966 2966 2966 2965 2965 2965 2965 2965 2964 2964 2963 2963 2962 2962 2962 2962 2961 2961 2960 2960 2959 2959 2958 2958 2957
3006 3005 3004 3003 3002 3001 2999 2998 2997 2996 2995 2993 2992 2991 2990 2989 2988 2987 2986 2984 2983 2982 2981 2980 2979 2977 2977 2975 2974 2973 2972 2971 2970 2969 2968 2967 2967 2966 2966 2966 2966 2965 2965 2965 2965 2964 2964 2965 2965 2965 2965 2965 2966 2966 2966 2966 2965 2965 2965 2965 2965 2964 2964 2964 2963 2963 2963 2962 2962 2962 2961 2961 2960 2960 2960 2959 2959 2958 2958 2957 2957 2956 2956 2955 2955 2954
3004 3003 3002 3001 3000 2999 2997 2996 2995 2994 2993 2992 2990 2989 2988 2987 2986 2985 2983 2982 2981 2980 2979 2978 2977 2976 2975 2973 2972 2971 2970 2969 2968 2967 2966 2966 2965 2964 2964 2964 2964 2963 2963 2963 2962 2962 2962 2962 2962 2963 2963 2963 2963 2963 2963 2963 2963 2963 2963 2963 2963 2962 2962 2962 2961 2961 2960 2960 2960 2959 2959 2958 2957 2957 2957 2957 2956 2956 2955 2955 2954 2954 2953 2952 2952 2952
3002 3001 3000 2999 2998 2997 2995 2994 2993 2992 2991 2990 2988 2987 2986 2985 2984 2982 2981 2980 2979 2978 2977 2976 2975 2974 2972 2971 2970 2969 2967 2967 2966 2965 2964 2964 2963 2962 2962 2962 2962 2961 2961 2961 2961 2960 2960 2960 2960 2960 2960 2960 2961 2961 2961 2961 2961 2961 2960 2960 2960 2960 2960 2960 2959 2958 2958 2957 2957 2956 2956 2955 2955 2955 2954 2954 2953 2953 2952 2952 2952 2951 2950 2950 2949 2949
3000 2999 2998 2997 2996 2995 2993 2992 2991 2990 2989 2987 2986 2985 2984 2983 2982 2981 2980 2978 2977 2976 2975 2974 2973 2972 2971 2969 2968 2967 2965 2964 2963 2963 2962 2962 2961 2961 2960 2960 2959 2959 2959 2959 2958 2958 2958 2958 2958 2957 2958 2958 2958 2958 2959 2959 2959 2958 2958 2957 2957 2957 2958 2957 2957 2956 2955 2955 2954 2953 2953 2952 2952 2952 2952 2951 2951 2950 2950 2949 2948 2948 2947 2947 2946 2946
2998 2997 2996 2995 2993 2992 2991 2990 2989 2988 2987 2985 2984 2983 2982 2981 2980 2979 2977 2976 2975 2974 2973 2972 2971 2970 2969 2968 2966 2965 2963 2962 2961 2960 2960 2959 2959 2958 2958 2957 2957 2957 2957 2957 2956 2956 2956 2956 2956 2955 2955 2955 2956 2956 2956 2956 2956 2956 2955 2954 2954 2954 2955 2955 2954 2953 2952 2952 2951 2950 2950 2949 2949 2949 2948 2948 2948 2947 2947 2946 2946 2945 2944 2944 2943 2943
2996 2994 2993 2992 2991 2990 2989 2988 2987 2986 2985 2983 2982 2981 2980 2978 2977 2977 2975 2974 2973 2972 2971 2970 2969 2968 2967 2966 2965 2963 2962 2960 2959 2958 2957 2957 2957 2956 2956 2955 2955 2955 2954 2954 2954 2954 2953 2953 2953 2953 2953 2953 2953 2953 2953 2953 2953 2953 2952 2952 2952 2952 2952 2952 2951 2950 2949 2949 2948 2947 2947 2946 2946 2946 2946 2945 2945 2944 2944 2943 2943 2942 2942 2941 2940 2940
2993 2992 2991 2990 2989 2988 2987 2986 2985 2984 2982 2981 2980 2979 2977 2977 2975 2974 2973 2972 2971 2970 2969 2968 2967 2966 2965 2964 2963 2962 2960 2959 2957 2956 2955 2954 2954 2954 2953 2953 2952 2952 2952 2952 2952 2952 2951 2951 2951 2951 2951 2951 2951 2951 2951 2950 2950 2950 2949 2949 2948 2948 2948 2948 2947 2947 2946 2946 2945 2944 2943 2943 2942 2942 2942 2942 2942 2942 2941 2941 2940 2939 2939 2938 2937 2937
2991 2990 2989 2988 2987 2986 2985 2983 2982 2981 2980 2979 2978 2977 2975 2974 2973 2972 2971 2970 2969 2968 2967 2966 2965 2964 2963 2962 2961 2960 2959 2957 2956 2954 2953 2952 2952 2951 2951 2950 2950 2950 2949 2949 2949 2949 2949 2948 2948 2948 2948 2948 2948 2948 2947 2947 2947 2946 2946 2946 2946 2945 2945 2945 2944 2943 2943 2942 2942 2941 2940 2940 2939 2939 2939 2939 2939 2938 2938 2938 2937 2937 2936 2935 2935 2934
2989 2988 2987 2986 2984 2983 2982 2981 2980 2979 2978 2977 2976 2974 2973 2972 2971 2970 2969 2968 2967 2966 2965 2964 2963 2962 2961 2960 2959 2958 2957 2955 2954 2953 2952 2950 2949 2949 2948 2948 2947 2947 2947 2947 2946 2946 2946 2946 2946 2946 2945 2945 2945 2945 2945 2944 2943 2943 2943 2942 2942 2942 2942 2942 2941 2940 2939 2939 2938 2937 2937 2936 2936 2935 2935 2935 2935 2935 2935 2935 2934 2933 2933 2932 2932 2932
2987 2986 2984 2983 2982 2981 2980 2979 2978 2977 2976 2975 2973 2972 2971 2970 2969 2967 2966 2965 2964 2963 2962 2962 2961 2960 2959 2958 2957 2956 2954 2953 2952 2951 2949 2948 2947 2947 2946 2945 2945 2944 2944 2944 2944 2943 2943 2943 2943 2943 2943 2942 2942 2942 2942 2941 2941 2940 2940 2939 2939 2939 2938 2938 2937 2937 2936 2935 2935 2934 2933 2933 2932 2932 2932 2932 2932 2932 2932 2932 2931 2931 2930 2930 2929 2929
2984 2983 2982 2981 2980 2979 2978 2977 2976 2975 2974 2972 2971 2970 2969 2967 2967 2965 2964 2963 2962 2961 2960 2959 2958 2958 2957 2956 2954 2953 2952 2951 2950 2949 2947 2946 2945 2944 2943 2943 2942 2942 2941 2941 2941 2941 2941 2941 2941 2941 2940 2940 2939 2939 2938 2938 2938 2937 2937 2936 2936 2936 2935 2935 2934 2934 2933 2932 2932 2931 2930 2930 2929 2928 2928 2928 2928 2928 2929 2929 2929 2928 2927 2927 2926 2926
2982 2981 2980 2979 2978 2977 2976 2974 2973 2972 2971 2970 2969 2968 2967 2965 2964 2963 2962 2961 2959 2958 2958 2957 2956 2956 2955 2953 2952 2951 2950 2949 2947 2947 2945 2944 2943 2942 2941 2940 2940 2939 2938 2938 2938 2938 2938 2938 2938 2938 2938 2937 2936 2935 2935 2935 2935 2934 2934 2933 2933 2932 2932 2931 2931 2931 2930 2929 2928 2928 2927 2927 2926 2925 2925 2924 2924 2925 2925 2926 2926 2925 2925 2924 2923 2923
2980 2978 2977 2977 2975 2974 2973 2972 2971 2970 2969 2968 2967 2966 2964 2963 2962 2961 2959 2958 2957 2956 2955 2955 2954 2953 2952 2951 2950 2949 2948 2947 2946 2944 2943 2942 2941 2940 2939 2938 2937 2937 2936 2935 2935 2935 2935 2935 2936 2936 2936 2935 2933 2932 2932 2932 2932 2931 2931 2930 2930 2929 2928 2928 2928 2927 2927 2926 2926 2925 2925 2924 2923 2922 2922 2921 2921 2921 2922 2922 2922 2922 2922 2921 2921 2920